Date String (YYYY-MM-DD hh:mm:ss) UTC,Instrument flags,Ambient pressure (hPa),Sample flow (lpm),Bypass flow (lpm),Sample temperature (°C),Ambient temperature (°C),ASC tube jacket temperature (°C),LED temperature (°C),Box temperature (°C),Sample RH (%),Span deviation,Mass concentration (μg/m³),Mass concentration (μg/m³),Mass concentration (μg/m³)
DateTimeUTC,F1_M11,P_M11,Q1_M11,Q2_M11,T1_M11,T2_M11,T3_M11,T4_M11,T5_M11,U1_M11,ZSPAN_M11,X2_M11,X0_M11,X1_M11
2022-11-01 09:00:00,,0824.2,4.99,0.00,27.8,26.1,00.0,36.8,29.5,09.2,0000.0,0002.55,0004.75,0002.00
2022-11-01 09:01:00,,0824.2,5.00,0.00,27.8,26.0,00.0,36.8,29.5,09.1,0000.0,0002.52,0004.61,0001.99
2022-11-01 09:02:00,,0824.2,5.00,0.00,27.8,26.0,00.0,36.8,29.5,09.1,0000.0,0002.51,0004.06,0001.99
2022-11-01 09:03:00,,0824.2,5.01,0.00,27.8,26.0,00.0,36.8,29.5,09.1,0000.0,0002.53,0004.03,0001.99
2022-11-01 09:04:00,,0824.2,5.01,0.00,27.8,26.0,00.0,36.7,29.4,09.1,0000.0,0002.56,0003.85,0001.98
2022-11-01 09:05:00,,0824.2,4.99,0.00,27.8,26.0,00.0,36.7,29.5,09.1,0000.0,0002.51,0003.85,0001.97
2022-11-01 09:06:00,,0824.2,5.00,0.00,27.8,26.0,00.0,36.7,29.5,09.1,0000.0,0002.47,0003.72,0001.96
2022-11-01 09:07:00,,0824.2,5.00,0.00,27.8,26.0,00.0,36.7,29.5,09.1,0000.0,0002.49,0003.93,0001.96
2022-11-01 09:08:00,,0824.2,4.99,0.00,27.8,26.0,00.0,36.7,29.4,09.1,0000.0,0002.49,0004.23,0001.97
2022-11-01 09:09:00,,0824.2,5.00,0.00,27.7,26.0,00.0,36.7,29.5,09.1,0000.0,0002.48,0004.16,0001.98
2022-11-01 09:10:00,,0824.2,5.00,0.00,27.7,26.0,00.0,36.7,29.4,09.1,0000.0,0002.47,0004.09,0002.00
2022-11-01 09:11:00,,0824.2,5.00,0.00,27.7,25.9,00.0,36.7,29.4,09.1,0000.0,0002.47,0004.10,0002.02
2022-11-01 09:12:00,,0824.2,5.01,0.00,27.7,26.0,00.0,36.7,29.4,09.1,0000.0,0002.54,0004.34,0002.04
2022-11-01 09:13:00,,0824.1,5.01,0.00,27.7,26.0,00.0,36.7,29.5,09.1,0000.0,0002.59,0004.41,0002.05
2022-11-01 09:14:00,,0824.1,5.00,0.00,27.7,26.0,00.0,36.7,29.5,09.1,0000.0,0002.59,0004.38,0002.06
2022-11-01 09:15:00,,0824.1,5.00,0.00,27.7,26.0,00.0,36.6,29.4,09.1,0000.0,0002.63,0004.59,0002.07
2022-11-01 09:16:00,,0824.1,5.00,0.00,27.7,26.0,00.0,36.6,29.5,09.1,0000.0,0002.68,0004.89,0002.10
2022-11-01 09:17:00,,0824.1,4.99,0.00,27.7,26.0,00.0,36.6,29.5,09.1,0000.0,0002.74,0005.09,0002.12
2022-11-01 09:18:00,,0824.1,5.00,0.00,27.7,26.0,00.0,36.6,29.4,09.1,0000.0,0002.72,0004.85,0002.13
2022-11-01 09:19:00,,0824.1,4.99,0.00,27.7,25.9,00.0,36.6,29.4,09.1,0000.0,0002.72,0004.53,0002.16
2022-11-01 09:20:00,,0824.1,5.00,0.00,27.7,25.9,00.0,36.6,29.5,09.1,0000.0,0002.73,0005.41,0002.18
2022-11-01 09:21:00,,0824.1,5.00,0.00,27.7,25.9,00.0,36.6,29.4,09.1,0000.0,0002.74,0005.53,0002.20
2022-11-01 09:22:00,,0824.0,5.01,0.00,27.6,25.9,00.0,36.6,29.3,09.1,0000.0,0002.76,0005.71,0002.21
2022-11-01 09:23:00,,0824.1,5.01,0.00,27.6,25.9,00.0,36.6,29.4,09.1,0000.0,0002.78,0007.11,0002.22
2022-11-01 09:24:00,,0824.0,5.00,0.00,27.6,25.9,00.0,36.6,29.4,09.1,0000.0,0002.80,0007.31,0002.23
2022-11-01 09:25:00,,0824.0,5.00,0.00,27.6,25.9,00.0,36.6,29.3,09.1,0000.0,0002.81,0007.35,0002.25
2022-11-01 09:26:00,,0824.1,5.00,0.00,27.6,25.8,00.0,36.6,29.2,09.1,0000.0,0002.77,0007.68,0002.26
2022-11-01 09:27:00,,0824.0,5.00,0.00,27.6,25.8,00.0,36.5,29.3,09.1,0000.0,0002.76,0007.69,0002.25
2022-11-01 09:28:00,,0824.1,5.00,0.00,27.6,25.8,00.0,36.5,29.3,09.1,0000.0,0002.74,0008.23,0002.23
2022-11-01 09:29:00,,0824.0,5.00,0.00,27.6,25.8,00.0,36.5,29.2,09.1,0000.0,0002.74,0008.48,0002.22
2022-11-01 09:30:00,,0824.0,5.00,0.00,27.6,25.8,00.0,36.5,29.3,09.1,0000.0,0002.74,0008.54,0002.20
2022-11-01 09:31:00,,0824.0,5.00,0.00,27.6,25.8,00.0,36.5,29.3,09.1,0000.0,0002.76,0008.19,0002.19
2022-11-01 09:32:00,,0824.0,5.00,0.00,27.5,25.7,00.0,36.5,29.2,09.1,0000.0,0002.77,0008.13,0002.19
2022-11-01 09:33:00,,0824.0,5.00,0.00,27.5,25.7,00.0,36.5,29.2,09.1,0000.0,0002.80,0008.19,0002.20
2022-11-01 09:34:00,,0824.0,5.00,0.00,27.5,25.7,00.0,36.5,29.2,09.1,0000.0,0002.77,0007.40,0002.21
2022-11-01 09:35:00,,0824.0,5.00,0.00,27.5,25.7,00.0,36.5,29.2,09.1,0000.0,0002.70,0006.92,0002.21
2022-11-01 09:36:00,,0824.0,5.00,0.00,27.5,25.7,00.0,36.5,29.2,09.2,0000.0,0002.71,0006.82,0002.22
2022-11-01 09:37:00,,0824.0,5.00,0.00,27.5,25.7,00.0,36.4,29.2,09.3,0000.0,0002.71,0006.36,0002.23
2022-11-01 09:38:00,,0824.1,5.00,0.00,27.5,25.7,00.0,36.4,29.2,09.3,0000.0,0002.69,0006.80,0002.24
2022-11-01 09:39:00,,0824.0,5.00,0.00,27.5,25.6,00.0,36.4,29.2,09.3,0000.0,0002.69,0005.98,0002.25
2022-11-01 09:40:00,,0824.1,5.00,0.00,27.4,25.6,00.0,36.4,29.2,09.4,0000.0,0002.67,0005.44,0002.26
2022-11-01 09:41:00,,0824.1,5.00,0.00,27.4,25.6,00.0,36.4,29.1,09.4,0000.0,0002.69,0006.36,0002.25
2022-11-01 09:42:00,,0824.1,5.00,0.00,27.4,25.6,00.0,36.4,29.1,09.4,0000.0,0002.70,0006.37,0002.26
2022-11-01 09:43:00,,0824.1,5.00,0.00,27.4,25.5,00.0,36.4,29.1,09.4,0000.0,0002.69,0006.29,0002.26
2022-11-01 09:44:00,,0824.0,5.00,0.00,27.4,25.5,00.0,36.4,29.1,09.5,0000.0,0002.66,0006.34,0002.25
2022-11-01 09:45:00,,0824.0,5.01,0.00,27.4,25.5,00.0,36.4,29.1,09.5,0000.0,0002.66,0006.63,0002.23
2022-11-01 09:46:00,,0824.0,5.00,0.00,27.4,25.5,00.0,36.3,29.1,09.5,0000.0,0002.69,0006.71,0002.25
2022-11-01 09:47:00,,0824.0,5.00,0.00,27.3,25.5,00.0,36.3,29.1,09.5,0000.0,0002.64,0006.59,0002.25
2022-11-01 09:48:00,,0824.1,5.00,0.00,27.3,25.5,00.0,36.3,29.0,09.5,0000.0,0002.66,0006.63,0002.25
2022-11-01 09:49:00,,0824.0,4.99,0.00,27.3,25.5,00.0,36.3,29.0,09.5,0000.0,0002.68,0005.68,0002.25
2022-11-01 09:50:00,,0824.0,4.99,0.00,27.3,25.5,00.0,36.3,29.0,09.5,0000.0,0002.69,0005.49,0002.26
2022-11-01 09:51:00,,0824.0,5.00,0.00,27.3,25.4,00.0,36.3,29.0,09.5,0000.0,0002.76,0005.57,0002.28
2022-11-01 09:52:00,,0824.0,5.01,0.00,27.3,25.4,00.0,36.3,29.0,09.5,0000.0,0002.76,0004.57,0002.31
2022-11-01 09:53:00,,0824.0,5.00,0.00,27.3,25.4,00.0,36.2,28.9,09.5,0000.0,0002.77,0004.54,0002.34
2022-11-01 09:54:00,,0824.0,5.00,0.00,27.2,25.4,00.0,36.2,28.9,09.5,0000.0,0002.79,0004.76,0002.36
2022-11-01 09:55:00,,0824.0,5.01,0.00,27.2,25.4,00.0,36.2,28.9,09.5,0000.0,0002.89,0004.80,0002.41
2022-11-01 09:56:00,,0824.0,5.01,0.00,27.2,25.4,00.0,36.2,28.9,09.4,0000.0,0002.97,0004.67,0002.45
2022-11-01 09:57:00,,0824.0,4.99,0.00,27.2,25.4,00.0,36.2,28.9,09.5,0000.0,0002.98,0004.68,0002.46
2022-11-01 09:58:00,,0824.0,4.99,0.00,27.2,25.4,00.0,36.2,28.8,09.5,0000.0,0003.00,0004.80,0002.48
2022-11-01 09:59:00,,0824.0,5.00,0.00,27.2,25.3,00.0,36.2,28.8,09.5,0000.0,0002.97,0005.50,0002.49
